Location: Lafig�re
(44.4503°N, 4.0357°E)
Time: 14:43:58
(UTC+00:00)

Vanguard 2 Rocket - Pass Details

Date: 03 February 2021
Orbit: 554 x 3325 km, 32.9° (Epoch: 06 March)

Event Time Altitude Azimuth Distance (km) Brightness Sun altitude
Rises 09:53:07 0° 210° (SSW) 6,994 11.8 22.9°
Reaches altitude 10° 09:58:28 10° 202° (SSW) 6,163 11.7 23.4°
Maximum altitude 10:14:44 32° 148° (SSE) 4,554 13.0 24.8°
Drops below altitude 10° 10:29:02 10° 94° (E) 5,465 11.3 25.9°
Sets 10:33:19 0° 85° (E) 6,141 11.4 26.2°
